Location: Highland Meadows Observing Site
(48.4428°N, 114.5461°W)
Time: 13:07:56
(UTC-06:00)

Gurwin Techsat 1B - Visible Passes

Search period start: 01 September 2014 00:00
Search period end: 11 September 2014 00:00
Orbit: 812 x 815 km, 98.5° (Epoch: 01 September)

Date Brightness Start Highest point End Pass type
(mag) Time Alt. Az. Time Alt. Az. Time Alt. Az.
01 Sep 8.9 04:30:28 10° NNE 04:35:46 66° ESE 04:38:39 27° S visible
01 Sep 10.0 06:11:18 10° N 06:15:17 22° WNW 06:19:16 10° WSW visible
02 Sep 9.5 04:07:58 10° NNE 04:13:02 43° E 04:15:38 26° SSE visible
02 Sep 9.5 05:48:14 10° N 05:52:52 32° WNW 05:56:51 13° WSW visible
03 Sep 10.2 03:45:38 10° NE 03:50:13 29° E 03:52:37 21° SE visible
03 Sep 9.0 05:25:19 10° N 05:30:23 46° WNW 05:33:50 20° SW visible
04 Sep 10.7 03:23:37 10° NE 03:27:20 19° E 03:29:36 15° ESE visible
04 Sep 8.6 05:02:32 10° N 05:07:50 70° WNW 05:10:49 26° SSW visible
05 Sep 11.1 03:02:21 10° ENE 03:04:21 12° E 03:06:20 10° ESE visible
05 Sep 8.6 04:39:51 10° NNE 04:45:12 79° ESE 04:47:48 31° S visible
05 Sep 10.2 06:20:57 10° NNW 06:24:34 19° WNW 06:28:10 10° W visible
06 Sep 9.2 04:17:17 10° NNE 04:22:29 52° E 04:24:47 31° SSE visible
06 Sep 9.7 05:57:47 10° N 06:02:11 27° WNW 06:06:00 13° WSW visible
07 Sep 9.9 03:54:52 10° NNE 03:59:42 34° E 04:01:46 26° SE visible
07 Sep 9.2 05:34:49 10° N 05:39:44 39° WNW 05:42:59 19° WSW visible
08 Sep 10.5 03:32:42 10° NE 03:36:51 23° E 03:38:45 19° ESE visible
08 Sep 8.7 05:11:59 10° N 05:17:12 58° WNW 05:19:57 27° SW visible
09 Sep 10.9 03:10:59 10° NE 03:13:54 15° E 03:15:43 13° ESE visible
09 Sep 8.5 04:49:15 10° NNE 04:54:36 87° WNW 04:56:56 35° SSW visible
09 Sep 10.3 06:30:40 10° NNW 06:33:50 16° NW 06:36:59 10° W visible
10 Sep 8.9 04:26:38 10° NNE 04:31:55 63° ESE 04:33:55 37° SSE visible
10 Sep 9.9 06:07:23 10° N 06:11:29 23° WNW 06:15:08 12° WSW visible
